Regional Weather Roundup
Issued by NWS

Home | Current Version | Previous Version | Text Only | Print | Product List | Glossary Off
Versions: 1 2 3 4 5 6 7 8 9 10 11 12 13 14 15 16 17 18 19 20 21 22 23 24 25 26 27

000
ASUS45 KCYS 161810
RWRWY

WYOMING REGIONAL WEATHER ROUNDUP
NATIONAL WEATHER SERVICE CHEYENNE WY
1200 PM MDT WED APR 16 2014

NOTE:  "FAIR" INDICATES FEW OR NO CLOUDS BELOW 12,000 FEET
WITH NO SIGNIFICANT WEATHER AND/OR OBSTRUCTIONS TO VISIBILITY.

WYZ001-161900-
YELLOWSTONE NATIONAL PARK

CITY           SKY/WX    TMP DP  RH WIND       PRES   REMARKS
LK YELLOWSTONE   N/A     30  15  53 E6        30.00R WCI  24
6HR MIN TEMP:  15; 6HR MAX TEMP:  31;

W YELLOWSTONE  NOT AVBL

$$
WYZ002>013-054>058-071-098>099-161900-
NORTHERN WYOMING

CITY           SKY/WX    TMP DP  RH WIND       PRES   REMARKS
JACKSON        MOSUNNY   36  18  48 MISG      30.01S
CODY           CLOUDY    45  19  36 N10       29.95F
GREYBULL       SUNNY     49  28  44 NW14      29.96F
6HR MIN TEMP:  35; 6HR MAX TEMP:  49;

WORLAND        MOSUNNY   47  25  42 N10       29.98S
6HR MIN TEMP:  36; 6HR MAX TEMP:  48;

SHERIDAN       CLOUDY    43  33  68 N20G26    29.99R
6HR MIN TEMP:  36; 6HR MAX TEMP:  44;

BUFFALO        PTSUNNY   39  31  72 N25G37    29.97S WCI  28
6HR MIN TEMP:  32; 6HR MAX TEMP:  40; 6HR PCP: TRACE;

GILLETTE       MOSUNNY   45  28  51 N18G25    29.95F
6HR MIN TEMP:  34; 6HR MAX TEMP:  45;

HULETT         FAIR      41  28  60 N9        29.97
NEWCASTLE      FAIR      43  28  56 NW16G23   29.95

$$
WYZ014>020-022>026-101>103-161900-
CENTRAL WYOMING

CITY           SKY/WX    TMP DP  RH WIND       PRES   REMARKS
BIG PINEY      SUNNY     41   5  22 NW13G20   30.00S
6HR MIN TEMP:  16; 6HR MAX TEMP:  42;

PINEDALE       CLEAR     32  19  59 NW15      30.01S WCI  22
DUBOIS         FAIR      34  18  51 N14G20    29.95S WCI  24
LANDER         MOSUNNY   44  21  40 SE7       29.97S
6HR MIN TEMP:  29; 6HR MAX TEMP:  44;

RIVERTON       PTSUNNY   42  23  46 VRB7      29.98S
6HR MIN TEMP:  29; 6HR MAX TEMP:  43;

CASPER         CLOUDY    37  30  75 SE5       29.98S WCI  33
6HR MIN TEMP:  30; 6HR MAX TEMP:  38; 6HR PCP: TRACE;

DOUGLAS        CLOUDY    44  30  57 NW15      29.98S
6HR MIN TEMP:  35; 6HR MAX TEMP:  44; 6HR PCP: TRACE;


$$
WYZ021-027>030-104>119-161900-
SOUTHERN WYOMING

CITY           SKY/WX    TMP DP  RH WIND       PRES   REMARKS
EVANSTON       MOSUNNY   45  10  24 W17G25    30.00S
6HR MIN TEMP:  30; 6HR MAX TEMP:  43;

KEMMERER       CLEAR     39  12  33 NW14G20   30.01S WCI  31
FORT BRIDGER   FAIR      44  11  25 W7G18     30.03S
ROCK SPRINGS   SUNNY     43   1  17 W9G17     29.99S
6HR MIN TEMP:  27; 6HR MAX TEMP:  44;

DIXON          FAIR      42  10  27 W10G16    30.04S
RAWLINS        FLURRIES  35  24  64 N10       29.99S WCI  27
6HR MIN TEMP:  26; 6HR MAX TEMP:  39; 6HR PCP: TRACE;

SARATOGA       FAIR      39  14  35 W13G18    29.99S WCI  32
LARAMIE        MOSUNNY   37  21  52 NW12      29.95S WCI  29
6HR MIN TEMP:  24; 6HR MAX TEMP:  38;

CHEYENNE       PTSUNNY   40  27  59 N16G24    29.94F WCI  31
6HR MIN TEMP:  32; 6HR MAX TEMP:  41; 6HR PCP: TRACE;

TORRINGTON     MOSUNNY   47  23  38 NW21G26   29.93S
6HR MIN TEMP:  38; 6HR MAX TEMP:  49;

PINE BLUFFS    MOCLDY    45  27  49 N24G37    29.95R

$$



USA.gov is the U.S. government's official web portal to all federal, state and local government web resources and services.